User: anonymous   Login
Location: Unspecified
(0.0000°N, 0.0000°E)
Time: 00:19:32
(UTC+00:00)
Language:

GRACE-FO 1 - Orbit

View from above orbital plane
View from above orbital plane
View from above satellite
View from above satellite

Ground track
Ground track

The orbit data is extracted from the following two-line orbital elements,

1 43476U 18047A   24103.63689812 +.00004038  00000-0 +14451-3 0    03
2 43476  88.9753 308.1501 0011143 331.0090 128.3904 15.28673373327868
Epoch (UTC): 12 April 2024 15:17:07
Eccentricity: 0.0011143
inclination: 88.9753°
perigee height: 472 km
apogee height: 487 km
right ascension of ascending node: 308.1501°
argument of perigee: 331.0090°
revolutions per day: 15.28673373
mean anomaly at epoch: 128.3904°
orbit number at epoch: 32786

The dashed part of the orbit path shows where the satellite is in the earth's shadow,  

DLR